GW4756 Weather Reports


time (UTC)temp
C
wind
direction
speed
KPH
gust
KPH
rain 1hr
cm
rain 24hr
cm
rain mn
cm
humidity
%
barometer
mb
20260503050351 8 307 0.0 0.0 0.00 0.43 0.00 93 1014.5
20260503045632 8 307 0.0 0.0 0.00 0.43 0.00 93 1014.3
20260503045132 8 307 0.0 0.0 0.00 0.43 0.00 93 1014.4
20260503044632 8 285 0.0 1.6 0.00 0.43 0.00 93 1014.3
20260503044132 8 285 1.6 3.2 0.00 0.43 0.00 93 1014.4
20260503043632 8 285 1.6 4.8 0.00 0.43 0.00 93 1014.4
20260503043132 8 286 0.0 6.4 0.00 0.43 0.00 94 1014.4
20260503042632 8 285 3.2 6.4 0.00 0.43 0.00 93 1014.5
20260503042132 9 267 0.0 6.4 0.00 0.43 0.00 93 1014.2
20260503041632 9 268 1.6 4.8 0.00 0.43 0.00 93 1014.2
20260503041132 9 268 3.2 6.4 0.00 0.43 0.00 93 1014.2
20260503040632 9 272 4.8 6.4 0.00 0.43 0.00 93 1014.3
20260503040132 9 264 1.6 6.4 0.00 0.43 0.00 93 1014.1
20260503035632 9 266 3.2 4.8 0.00 0.43 0.43 93 1014.3
20260503035132 9 266 0.0 4.8 0.00 0.43 0.43 93 1014.1
20260503034632 9 262 0.0 0.0 0.00 0.43 0.43 93 1014.2
20260503034132 9 258 0.0 3.2 0.00 0.43 0.43 93 1014.0
20260503033632 9 258 0.0 3.2 0.00 0.43 0.43 93 1014.0
20260503033131 9 254 0.0 3.2 0.00 0.43 0.43 93 1014.0
20260503032631 10 269 0.0 3.2 0.00 0.43 0.43 93 1014.1
20260503032131 10 269 1.6 4.8 0.00 0.43 0.43 93 1014.0
20260503031852 10 270 1.6 4.8 0.00 0.43 0.43 93 1013.9
20260503031132 10 271 3.2 3.2 0.00 0.43 0.43 93 1013.8
20260503030632 10 269 1.6 3.2 0.00 0.43 0.43 93 1013.9
20260503030132 10 269 1.6 3.2 0.00 0.43 0.43 93 1013.5
20260503025632 10 269 1.6 3.2 0.00 0.43 0.43 92 1013.7
20260503025132 10 269 1.6 3.2 0.00 0.43 0.43 92 1013.7
20260503024632 10 272 0.0 6.4 0.00 0.43 0.43 92 1013.7
20260503024132 10 272 0.0 6.4 0.00 0.43 0.43 92 1013.6
20260503023632 10 275 1.6 4.8 0.00 0.43 0.43 92 1013.6
20260503023131 10 268 1.6 4.8 0.00 0.43 0.43 92 1013.3
20260503022631 10 266 1.6 4.8 0.00 0.43 0.43 92 1013.5
20260503022131 10 269 1.6 4.8 0.00 0.43 0.43 92 1013.5
20260503021632 10 273 0.0 0.0 0.00 0.43 0.43 92 1013.6
20260503021132 10 273 0.0 3.2 0.00 0.43 0.43 92 1013.7
20260503020632 10 273 0.0 3.2 0.00 0.43 0.43 92 1013.7
20260503020131 10 273 0.0 4.8 0.00 0.43 0.43 92 1013.4
20260503015631 10 274 1.6 4.8 0.00 0.43 0.43 92 1013.7
20260503015132 10 98 0.0 0.0 0.00 0.43 0.43 91 1013.5
20260503014631 10 99 0.0 0.0 0.00 0.43 0.43 91 1013.4
20260503014131 10 98 0.0 0.0 0.00 0.43 0.43 91 1013.5
20260503013855 10 98 0.0 0.0 0.00 0.43 0.43 91 1013.4
20260503013353 10 98 0.0 1.6 0.00 0.43 0.43 91 1013.1
20260503012631 10 98 0.0 1.6 0.00 0.43 0.43 91 1013.2
20260503012131 10 98 0.0 0.0 0.00 0.43 0.43 91 1013.1
20260503011631 10 98 0.0 0.0 0.00 0.43 0.43 90 1013.2
20260503011131 10 98 0.0 0.0 0.00 0.43 0.43 90 1013.0
20260503010631 10 98 0.0 0.0 0.00 0.43 0.43 90 1013.0
20260503010131 10 98 0.0 0.0 0.00 0.43 0.43 90 1012.8
20260503005631 11 98 0.0 0.0 0.00 0.43 0.43 90 1012.9
20260503005132 11 98 0.0 0.0 0.00 0.43 0.43 89 1012.8
20260503004631 11 98 0.0 0.0 0.00 0.43 0.43 89 1012.4
20260503004132 11 98 0.0 0.0 0.00 0.43 0.43 89 1012.5
20260503003632 11 98 0.0 0.0 0.00 0.43 0.43 89 1012.4
20260503003132 11 98 0.0 0.0 0.00 0.43 0.43 89 1012.5
20260503002853 11 98 0.0 0.0 0.00 0.43 0.43 89 1012.2
20260503002132 11 98 0.0 0.0 0.00 0.43 0.43 88 1012.3
20260503001631 11 98 0.0 0.0 0.00 0.43 0.43 88 1012.1
20260503001132 11 98 0.0 0.0 0.00 0.43 0.43 88 1011.7
20260503000631 12 98 0.0 0.0 0.00 0.43 0.43 88 1011.9
20260503000132 12 98 0.0 0.0 0.00 0.43 0.43 88 1012.0
20260502235632 12 98 0.0 0.0 0.00 0.43 0.43 88 1011.9
20260502235349 12 98 0.0 0.0 0.00 0.43 0.43 88 1011.9
20260502234631 12 98 0.0 1.6 0.00 0.43 0.43 88 1011.6
20260502234356 12 98 0.0 1.6 0.00 0.43 0.43 88 1011.7
20260502233632 12 98 0.0 1.6 0.00 0.43 0.43 88 1011.7
20260502233353 12 98 1.6 1.6 0.00 0.43 0.43 87 1011.6
20260502232859 12 97 0.0 1.6 0.00 0.43 0.43 87 1011.7
20260502232132 12 97 0.0 0.0 0.00 0.43 0.43 87 1011.7
20260502231850 12 97 0.0 0.0 0.00 0.43 0.43 87 1011.5
20260502231132 12 97 0.0 0.0 0.00 0.43 0.43 87 1011.6
20260502230632 12 97 0.0 1.6 0.00 0.43 0.43 87 1011.7
20260502230131 12 97 0.0 1.6 0.00 0.43 0.43 87 1011.3
20260502225631 12 97 0.0 0.0 0.00 0.43 0.43 87 1011.2
20260502225131 12 97 0.0 0.0 0.00 0.43 0.43 87 1011.6
20260502224632 12 97 0.0 0.0 0.00 0.43 0.43 87 1011.6
20260502224132 12 98 0.0 1.6 0.00 0.43 0.43 87 1011.5
20260502223632 12 98 0.0 1.6 0.00 0.43 0.43 86 1011.5
20260502223132 12 98 0.0 1.6 0.00 0.43 0.43 86 1011.4
20260502222632 12 98 0.0 1.6 0.00 0.43 0.43 86 1011.4
20260502222358 12 98 0.0 0.0 0.00 0.43 0.43 86 1011.4
20260502221631 12 98 0.0 0.0 0.00 0.43 0.43 86 1011.5
20260502221132 12 98 0.0 0.0 0.00 0.43 0.43 85 1011.3
20260502220632 12 98 0.0 0.0 0.00 0.43 0.43 85 1011.4
20260502220132 12 98 0.0 0.0 0.00 0.43 0.43 85 1011.2
20260502215632 12 98 0.0 0.0 0.00 0.43 0.43 85 1011.1
20260502215131 12 98 0.0 3.2 0.00 0.43 0.43 85 1011.1
20260502214631 12 98 0.0 3.2 0.00 0.43 0.43 85 1011.3
20260502214132 12 81 0.0 1.6 0.00 0.43 0.43 85 1011.2
20260502213632 12 81 0.0 3.2 0.00 0.43 0.43 85 1011.2
20260502213132 12 82 1.6 3.2 0.00 0.43 0.43 85 1011.2
20260502212632 12 76 1.6 1.6 0.00 0.43 0.43 86 1011.1
20260502212132 12 100 0.0 3.2 0.00 0.43 0.43 86 1011.1
20260502211632 12 142 0.0 3.2 0.00 0.43 0.43 86 1011.0
20260502211132 12 142 0.0 3.2 0.00 0.43 0.43 85 1011.0
20260502210632 12 142 0.0 4.8 0.00 0.43 0.43 85 1011.1
20260502210132 12 142 1.6 4.8 0.00 0.43 0.43 85 1011.2
20260502205632 12 132 0.0 3.2 0.00 0.43 0.43 85 1011.1
20260502205355 12 132 0.0 3.2 0.00 0.43 0.43 85 1011.3
20260502204632 12 62 1.6 3.2 0.00 0.43 0.43 86 1011.1
20260502204354 12 60 0.0 4.8 0.00 0.43 0.43 86 1011.1
20260502203631 12 60 0.0 4.8 0.00 0.43 0.43 86 1011.2
20260502203131 12 290 0.0 3.2 0.00 0.43 0.43 86 1011.3
20260502202631 12 289 0.0 4.8 0.00 0.43 0.43 86 1011.4
20260502202351 12 163 3.2 6.4 0.00 0.43 0.43 87 1011.2
20260502201632 12 68 0.0 6.4 0.00 0.43 0.43 88 1011.3
20260502201132 12 166 4.8 6.4 0.00 0.43 0.43 88 1011.0
20260502200632 12 153 3.2 4.8 0.00 0.43 0.43 88 1011.1
20260502200132 12 324 0.0 4.8 0.00 0.43 0.43 88 1011.3
20260502195631 12 88 0.0 4.8 0.00 0.43 0.43 88 1011.4
20260502195131 12 336 0.0 4.8 0.00 0.43 0.43 89 1011.2
20260502194631 12 218 1.6 6.4 0.00 0.43 0.43 90 1011.5
20260502194132 12 69 0.0 6.4 0.00 0.43 0.43 90 1011.6
20260502193632 12 127 0.0 6.4 0.00 0.43 0.43 90 1011.5
20260502193132 12 34 1.6 4.8 0.00 0.43 0.43 91 1011.6
20260502192632 12 78 1.6 3.2 0.00 0.43 0.43 91 1011.8
20260502192132 12 1 1.6 3.2 0.00 0.43 0.43 91 1011.7
20260502191632 12 95 0.0 4.8 0.00 0.43 0.43 92 1011.7
20260502190632 11 216 1.6 4.8 0.00 0.43 0.43 93 1012.0
20260502190132 11 126 0.0 4.8 0.00 0.43 0.43 93 1011.8
20260502185632 11 82 3.2 4.8 0.00 0.43 0.43 93 1011.8
20260502185132 11 151 1.6 6.4 0.00 0.43 0.43 93 1011.9
20260502184632 11 340 1.6 6.4 0.00 0.43 0.43 93 1011.9
20260502184131 11 198 3.2 4.8 0.00 0.43 0.43 94 1012.2
20260502183852 11 117 3.2 4.8 0.00 0.43 0.43 94 1012.0
20260502183132 11 169 1.6 4.8 0.00 0.43 0.43 94 1011.9
20260502182632 11 67 1.6 9.7 0.00 0.43 0.43 94 1011.9
20260502182132 11 170 1.6 9.7 0.00 0.43 0.43 94 1012.3
20260502181632 11 354 1.6 6.4 0.00 0.43 0.43 95 1012.1
20260502181132 11 144 4.8 4.8 0.00 0.43 0.43 95 1012.6
20260502180632 11 44 1.6 4.8 0.00 0.43 0.43 95 1012.6
20260502180132 11 22 1.6 4.8 0.00 0.43 0.43 95 1012.6
20260502170131 11 157 0.0 9.7 0.05 0.43 0.43 95 1012.7
20260502164132 10 338 0.0 4.8 0.05 0.43 0.43 95 1013.2
20260502163632 10 25 1.6 4.8 0.05 0.43 0.43 95 1013.3
20260502163353 10 49 1.6 6.4 0.03 0.41 0.41 95 1013.3
20260502162632 10 146 1.6 6.4 0.03 0.41 0.41 95 1013.2
20260502162131 10 13 1.6 6.4 0.03 0.41 0.41 95 1013.5
20260502161632 10 350 1.6 6.4 0.03 0.41 0.41 95 1013.5
20260502161132 10 27 1.6 6.4 0.03 0.41 0.41 95 1013.6
20260502160632 10 77 0.0 4.8 0.03 0.38 0.38 95 1013.7
20260502160131 10 79 0.0 4.8 0.03 0.38 0.38 95 1013.6
20260502152338 11 111 1.6 9.7 0.05 0.38 0.38 95 1013.3
20260502151620 10 346 0.0 4.8 0.05 0.38 0.38 95 1013.5
20260502151120 11 59 1.6 4.8 0.08 0.38 0.38 95 1013.2
20260502150620 11 61 0.0 4.8 0.08 0.38 0.38 95 1013.2
20260502150120 11 50 0.0 4.8 0.10 0.38 0.38 95 1013.7
20260502130120 10 336 0.0 9.7 0.08 0.13 0.13 91 1012.7
20260502123620 11 331 0.0 6.4 0.05 0.08 0.08 91 1012.4
20260502123120 10 345 1.6 4.8 0.05 0.08 0.08 90 1011.9
20260502122619 10 330 1.6 4.8 0.05 0.05 0.05 90 1012.0
20260502122120 11 335 4.8 6.4 0.05 0.05 0.05 90 1011.9
20260502121620 11 336 1.6 6.4 0.05 0.05 0.05 89 1012.1
20260502121120 11 335 1.6 6.4 0.05 0.05 0.05 89 1012.0
20260502120620 11 335 0.0 4.8 0.05 0.05 0.05 89 1012.1
20260502120119 11 352 1.6 9.7 0.05 0.05 0.05 89 1012.2
20260502115619 11 340 0.0 9.7 0.05 0.05 0.05 88 1012.2
20260502115119 11 337 3.2 4.8 0.05 0.05 0.05 88 1012.2
20260502114619 11 343 0.0 4.8 0.05 0.05 0.05 88 1012.3
20260502114119 11 327 0.0 4.8 0.03 0.03 0.03 88 1012.1
20260502113619 11 339 1.6 4.8 0.03 0.03 0.03 87 1012.2
20260502113343 11 326 0.0 6.4 0.03 0.03 0.03 86 1012.2
20260502112620 11 343 3.2 6.4 0.03 0.03 0.03 85 1012.1
20260502112120 11 342 0.0 4.8 0.03 0.03 0.03 85 1012.4
20260502111620 11 343 1.6 3.2 0.00 0.00 0.00 85 1012.4
20260502111120 11 332 0.0 4.8 0.00 0.00 0.00 84 1012.3
20260502110619 11 332 0.0 12.9 0.00 0.00 0.00 84 1012.4
20260502110120 12 357 9.7 12.9 0.00 0.00 0.00 83 1012.5
20260502105619 12 330 0.0 6.4 0.00 0.00 0.00 82 1012.6
20260502105343 12 343 1.6 11.3 0.00 0.00 0.00 82 1012.4
20260502104620 12 331 1.6 11.3 0.00 0.00 0.00 82 1012.4
20260502104120 12 326 0.0 9.7 0.00 0.00 0.00 83 1012.4
20260502103620 12 288 3.2 9.7 0.00 0.00 0.00 83 1012.3
20260502103120 12 284 1.6 6.4 0.00 0.00 0.00 83 1012.6
20260502102619 12 318 1.6 6.4 0.00 0.00 0.00 84 1012.4
20260502102119 12 258 1.6 4.8 0.00 0.00 0.00 84 1012.6
20260502101619 12 284 1.6 4.8 0.00 0.00 0.00 85 1012.2
20260502101119 12 354 1.6 6.4 0.00 0.00 0.00 85 1012.3
20260502100845 12 296 3.2 6.4 0.00 0.00 0.00 86 1012.4
20260502100120 12 273 4.8 6.4 0.00 0.00 0.00 86 1012.5
20260502091119 11 277 4.8 9.7 0.00 0.00 0.00 87 1012.4
20260502090619 11 297 3.2 9.7 0.00 0.00 0.00 87 1012.4
20260502090119 11 266 1.6 6.4 0.00 0.00 0.00 87 1012.4
20260502071120 11 268 0.0 0.0 0.00 0.00 0.00 87 1011.5
20260502070840 11 268 0.0 0.0 0.00 0.00 0.00 86 1011.5
20260502070119 11 268 0.0 0.0 0.00 0.00 0.00 86 1011.6
20260502065619 11 268 0.0 0.0 0.00 0.00 0.00 86 1011.6
20260502065119 11 268 0.0 0.0 0.00 0.00 0.00 86 1011.4
20260502064619 11 268 0.0 0.0 0.00 0.00 0.00 85 1011.7
20260502064119 11 268 0.0 0.0 0.00 0.00 0.00 85 1011.6
20260502063620 11 268 0.0 0.0 0.00 0.00 0.00 85 1011.7
20260502063119 11 268 0.0 0.0 0.00 0.00 0.00 85 1011.6
20260502062620 11 268 0.0 0.0 0.00 0.00 0.00 85 1011.8
20260502062119 11 268 0.0 0.0 0.00 0.00 0.00 85 1011.9
20260502061619 11 268 0.0 0.0 0.00 0.00 0.00 85 1011.9
20260502061119 11 268 0.0 0.0 0.00 0.00 0.00 85 1011.9
20260502060620 12 268 0.0 0.0 0.00 0.00 0.00 85 1011.9
20260502060120 11 268 0.0 0.0 0.00 0.00 0.00 85 1011.9
20260502055620 12 268 0.0 0.0 0.00 0.00 0.00 84 1012.0
20260502055120 12 268 0.0 0.0 0.00 0.00 0.00 84 1011.7
20260502054620 12 268 0.0 3.2 0.00 0.00 0.00 84 1012.0
20260502054120 12 268 0.0 3.2 0.00 0.00 0.00 84 1012.1
20260502053620 12 268 3.2 3.2 0.00 0.00 0.00 84 1012.1
20260502053120 12 268 0.0 0.0 0.00 0.00 0.00 84 1012.1
20260502052845 12 268 0.0 0.0 0.00 0.00 0.00 84 1012.3
20260502052120 12 268 0.0 0.0 0.00 0.00 0.00 84 1012.1
20260502051620 12 263 0.0 0.0 0.00 0.00 0.00 84 1012.3
20260502051120 12 119 0.0 0.0 0.00 0.00 0.00 84 1012.4